SCP
0 0 0 0 0 0 0 0 0 0 0 0 0 0 1 1 1 1 0 0 0 0
0 0 0 0 0 0 0 0 0 0 0 0 0 0 1 1 1 1 0 0 0 0
0 0 0 0 0 0 0 0 0 0 0 0 0 0 0 0 0 0 0 0 0 0
0 0 0 0 0 0 0 0 0 0 0 0 0 0 0 0 0 0 0 0 0 0
0 0 0 0 0 0 0 0 0 0 0 0 0 0 0 0 0 0 0 0 0 0
0 0 0 0 0 0 0 0 0 0 0 0 0 0 0 0 0 0 0 0 0 0
0 0 0 0 0 0 0 0 0 0 0 0 0 0 0 0 0 0 0 0 0 0
0 0 0 0 0 0 0 0 0 0 0 0 0 0 0 0 0 0 0 0 0 0
0 0 0 0 0 0 0 0 0 0 0 0 0 0 0 0 0 0 0 0 0 0
0 0 0 0 0 0 0 0 0 0 0 0 0 0 0 0 0 0 0 0 0 0
0 0 0 0 0 0 0 0 0 0 0 0 0 0 0 0 0 0 0 0 0 0
0 0 0 0 0 0 0 0 0 0 0 0 0 0 0 0 0 0 0 0 0 0
-0 -0 -0 -0 -0 -0 -0 -0 -0 -0 -0 0 -0 0 0 0 0 0 0 0 0 0
-0 -0 -0 -0 -0 -0 -0 -0 -0 -0 -0 0 0 0 0 0 0 0 0 0 0 0
Wind_Speed_500mb
28 25 27 28 27 35 50 43 38 40 49 53 53 58 61 68 78 84 84 90 98 98
20 24 29 33 32 33 34 41 46 51 44 45 39 44 47 54 63 70 73 85 82 93
12 17 18 18 23 27 31 35 38 42 48 45 44 43 41 43 48 53 60 67 76 78
13 15 12 13 24 27 29 30 33 36 40 48 53 48 42 41 41 42 48 53 60 66
14 13 16 23 27 30 33 35 38 38 38 36 36 37 38 39 35 32 34 40 42 54
18 20 20 22 27 30 31 34 35 35 35 31 28 30 32 26 26 30 33 32 36 41
18 17 16 16 20 20 21 26 26 25 21 21 21 17 22 28 31 30 35 37 43 41
15 15 15 14 12 15 16 19 25 25 26 21 23 23 24 23 24 27 27 26 25 16
15 13 12 13 11 11 12 15 15 13 12 11 15 16 14 12 11 9 5 1 4 11
12 12 8 11 9 10 14 17 18 18 16 14 20 23 21 21 19 16 12 8 4 4
4 6 9 10 15 20 23 25 26 24 23 21 23 20 20 21 19 12 8 3 1 3
13 14 17 21 26 28 26 27 28 29 25 22 23 21 20 16 11 8 5 4 8 8
24 24 25 28 28 27 25 27 26 22 20 19 16 14 13 11 8 7 5 5 6 9
28 29 27 26 25 21 20 20 20 19 17 14 15 15 13 14 13 13 14 16 20 22
Wind_Direction_500mb
279 282 280 274 267 258 255 255 260 274 274 270 272 270 261 256 257 260 261 258 253 254
267 260 263 268 266 264 259 253 253 254 271 276 275 277 271 265 260 260 264 262 264 259
282 286 289 292 284 270 266 265 263 263 261 263 267 270 275 267 265 266 266 267 267 269
290 281 283 276 281 290 287 281 279 275 269 262 263 270 269 269 269 265 266 269 269 271
296 295 278 274 282 286 288 290 289 288 287 283 277 271 268 271 274 276 273 274 275 274
292 292 296 304 306 301 297 295 294 291 289 288 280 273 269 265 269 278 295 277 275 269
298 302 306 320 323 316 320 327 327 318 308 302 292 278 276 277 278 274 285 282 279 265
314 315 315 314 320 324 331 335 329 326 315 308 301 290 285 287 284 276 272 274 269 241
337 340 348 350 331 339 349 352 349 344 345 342 332 339 343 337 316 322 330 358 207 190
328 340 3 4 8 29 38 42 48 50 45 51 58 56 59 62 66 73 84 102 143 160
32 60 72 70 73 66 67 73 75 75 77 77 74 65 61 54 51 54 62 56 251 267
88 90 90 90 83 82 82 80 75 73 69 62 67 58 55 56 56 36 20 323 280 287
102 102 101 96 94 89 83 76 73 73 70 67 57 48 37 42 45 41 17 337 337 313
109 107 103 99 94 89 80 71 68 65 63 57 45 35 22 14 7 348 333 319 311 309
Wind_Speed_850mb
28 25 27 28 27 35 50 43 38 40 49 53 53 58 61 68 78 84 84 90 98 98
20 24 29 33 32 33 34 41 46 51 44 45 39 44 47 54 63 70 73 85 82 93
12 17 18 18 23 27 31 35 38 42 48 45 44 43 41 43 48 53 60 67 76 78
13 15 12 13 24 27 29 30 33 36 40 48 53 48 42 41 41 42 48 53 60 66
14 13 16 23 27 30 33 35 38 38 38 36 36 37 38 39 35 32 34 40 42 54
18 20 20 22 27 30 31 34 35 35 35 31 28 30 32 26 26 30 33 32 36 41
18 17 16 16 20 20 21 26 26 25 21 21 21 17 22 28 31 30 35 37 43 41
15 15 15 14 12 15 16 19 25 25 26 21 23 23 24 23 24 27 27 26 25 16
15 13 12 13 11 11 12 15 15 13 12 11 15 16 14 12 11 9 5 1 4 11
12 12 8 11 9 10 14 17 18 18 16 14 20 23 21 21 19 16 12 8 4 4
4 6 9 10 15 20 23 25 26 24 23 21 23 20 20 21 19 12 8 3 1 3
13 14 17 21 26 28 26 27 28 29 25 22 23 21 20 16 11 8 5 4 8 8
24 24 25 28 28 27 25 27 26 22 20 19 16 14 13 11 8 7 5 5 6 9
28 29 27 26 25 21 20 20 20 19 17 14 15 15 13 14 13 13 14 16 20 22
Wind_Direction_850mb
279 282 280 274 267 258 255 255 260 274 274 270 272 270 261 256 257 260 261 258 253 254
267 260 263 268 266 264 259 253 253 254 271 276 275 277 271 265 260 260 264 262 264 259
282 286 289 292 284 270 266 265 263 263 261 263 267 270 275 267 265 266 266 267 267 269
290 281 283 276 281 290 287 281 279 275 269 262 263 270 269 269 269 265 266 269 269 271
296 295 278 274 282 286 288 290 289 288 287 283 277 271 268 271 274 276 273 274 275 274
292 292 296 304 306 301 297 295 294 291 289 288 280 273 269 265 269 278 295 277 275 269
298 302 306 320 323 316 320 327 327 318 308 302 292 278 276 277 278 274 285 282 279 265
314 315 315 314 320 324 331 335 329 326 315 308 301 290 285 287 284 276 272 274 269 241
337 340 348 350 331 339 349 352 349 344 345 342 332 339 343 337 316 322 330 358 207 190
328 340 3 4 8 29 38 42 48 50 45 51 58 56 59 62 66 73 84 102 143 160
32 60 72 70 73 66 67 73 75 75 77 77 74 65 61 54 51 54 62 56 251 267
88 90 90 90 83 82 82 80 75 73 69 62 67 58 55 56 56 36 20 323 280 287
102 102 101 96 94 89 83 76 73 73 70 67 57 48 37 42 45 41 17 337 337 313
109 107 103 99 94 89 80 71 68 65 63 57 45 35 22 14 7 348 333 319 311 309